Location: St Paul
(33.9360°N, 83.4200°W)
Time: 01:25:20
(UTC-04:00)

METEOR-M - Pass Details

Date: 25 March 2019
Orbit: 816 x 819 km, 98.4° (Epoch: 13 October)

Event Time Altitude Azimuth Distance (km) Brightness Sun altitude
Rises 06:10:37 0° 34° (NE) 3,350 8.1 -17.3°
Reaches altitude 10° 06:13:53 10° 55° (NE) 2,413 7.7 -16.6°
Maximum altitude 06:17:10 16° 93° (E) 1,996 7.2 -16.0°
Drops below altitude 10° 06:20:26 10° 131° (SE) 2,406 7.1 -15.3°
Sets 06:23:40 0° 152° (SSE) 3,333 7.5 -14.7°
